Location: Newark
(25.0000°N, 73.5000°E)
Time: 03:39:34
(UTC+00:00)

Altair - Pass Details

Date: 08 March 2021
Orbit: 1501 x 1683 km, 47.2° (Epoch: 12 April)

Event Time Altitude Azimuth Distance (km) Brightness Sun altitude
Rises 14:57:42 0° 298° (WNW) 4,641 11.1 -24.8°
Reaches altitude 10° 15:02:12 10° 317° (NW) 3,676 10.1 -25.8°
Maximum altitude 15:07:59 18° 357° (N) 3,139 9.2 -27.1°
Enters shadow 15:13:25 11° 34° (NE) 3,664 9.2 -28.3°
Drops below altitude 10° 15:13:54 10° 36° (NE) 3,750 - -28.4°
Sets 15:18:33 0° 55° (NE) 4,770 - -29.5°
